Regional Weather Roundup
Issued by NWS Upton, NY

Current Version | Previous Version | Text Only | Print | Product List | Glossary On
Versions: 1 2 3 4 5 6 7 8 9 10 11 12 13 14 15 16 17 18 19 20 21 22 23 24 25 26 27 28 29 30 31 32 33 34 35 36 37 38 39 40 41 42 43 44 45 46 47 48 49 50
000 ASUS41 KOKX 222118 RWROKX REGIONAL WEATHER ROUNDUP NATIONAL WEATHER SERVICE NEW YORK NY 500 PM EDT FRI MAY 22 2015 NOTE: "FAIR" INDICATES FEW OR NO CLOUDS BELOW 12,000 FEET WITH NO SIGNIFICANT WEATHER AND/OR OBSTRUCTIONS TO VISIBILITY. NYZ071-072-176-178-NJZ106-104-222200- NEW YORK CITY METRO AREA CITY SKY/WX TMP DP RH WIND PRES REMARKS CENTRAL PARK CLOUDY 70 38 31 W12G29 29.97R LAGUARDIA APRT CLOUDY 71 39 31 W17G26 29.94R KENNEDY INTL PTSUNNY 73 38 27 W16G25 29.94S NEWARK/LIBERTY PTSUNNY 72 42 34 NW17G24 29.95R BRNX BOT. GARD N/A 68 39 34 W6 29.97R TETERBORO CLOUDY 69 39 33 NW15G29 29.93R $$ NYZ177-179-078>081-222200- LONG ISLAND NEW YORK CITY SKY/WX TMP DP RH WIND PRES REMARKS FARMINGDALE CLOUDY 70 40 33 W13G22 29.94R ISLIP PTSUNNY 71 38 29 W13G24 29.91R SHIRLEY PTSUNNY 72 37 28 W15G23 29.93R WESTHAMPTON CLOUDY 66 48 52 SW12 29.94R MONTAUK POINT N/A 69 46 43 SW9G18 29.91R $$ NYZ052-065-067-222200- HUDSON VALLEY CITY SKY/WX TMP DP RH WIND PRES REMARKS WHITE PLAINS PTSUNNY 67 38 34 NW13G20 29.93R NEWBURGH MOSUNNY 68 37 32 NW17G28 29.95R MONTGOMERY MOSUNNY 69 36 29 NW15G24 29.95R POUGHKEEPSIE MOSUNNY 71 29 21 W15G30 29.93R ALBANY MOSUNNY 64 27 24 NW21G35 29.98R $$ NJZ001-105-106-008-010-013-015-019>022-104-222200- NEW JERSEY CITY SKY/WX TMP DP RH WIND PRES REMARKS NEWARK/LIBERTY PTSUNNY 72 42 34 NW17G24 29.95R TETERBORO CLOUDY 69 39 33 NW15G29 29.93R CALDWELL CLOUDY 68 41 37 NW13 29.96R MORRISTOWN PTSUNNY 72 46 40 N8G16 29.96R SOMERVILLE CLOUDY 70 41 34 N10 29.95R SUSSEX PTSUNNY 68 40 35 VRB6 29.96R ANDOVER N/A 67 40 37 VRB6 29.97F TRENTON MOSUNNY 74 39 28 NW17G29 29.96S MILLVILLE MOSUNNY 73 44 35 W21G29 30.02S ATLANTIC CITY PTSUNNY 73 42 32 W16G23 30.00S WRIGHTSTOWN PTSUNNY 74 40 29 NW15G25 29.94F TOMS RIVER PTSUNNY 72 41 33 W15G23 29.98R BELMAR MOSUNNY 73 43 33 W17G29 29.96S $$ PAZ047>061-062-071-222200- EASTERN PENNSYLVANIA CITY SKY/WX TMP DP RH WIND PRES REMARKS PHILADELPHIA PTSUNNY 76 39 26 W22G29 30.00S ALLENTOWN RAIN 58 50 75 W14G22 30.03R SCRANTON PTSUNNY 68 32 26 NW17 29.97S $$ CTZ002-004>006-009-010-012-RIZ004-006-007-MAZ004-011-015-222200- SOUTHERN NEW ENGLAND IN CT CITY SKY/WX TMP DP RH WIND PRES REMARKS BRADLEY INTL MOSUNNY 71 32 23 NW17G29 29.89R HARTFORD MOSUNNY 70 32 24 W10G18 29.89R DANBURY SUNNY 68 32 26 NW17G25 29.94R WTRBRY/OXFORD MOSUNNY 68 30 24 NW13G29 29.95R BRIDGEPORT SUNNY 74 36 25 W18G29 29.91R MERIDEN MOSUNNY 72 29 20 NW15G25 29.90R NEW HAVEN MOSUNNY 71 37 28 NW15G22 29.91R CHESTER FAIR 70 32 24 W10G21 29.91R GROTON MOSUNNY 67 47 48 SW8 29.88R WILLIMANTIC MOSUNNY 72 32 23 NW10G23 29.88R IN RI CITY SKY/WX TMP DP RH WIND PRES REMARKS PROVIDENCE PTSUNNY 73 31 21 W15G28 29.85R BLOCK ISLAND MOSUNNY 63 46 55 SW17 29.91R WESTERLY MOSUNNY 64 45 49 SW12G21 29.89R IN MA CITY SKY/WX TMP DP RH WIND PRES REMARKS BOSTON MOSUNNY 71 30 21 W22G37 29.82R WORCESTER MOSUNNY 65 29 25 W20G25 29.88R WESTFIELD NOT AVBL PROVINCETOWN PTSUNNY 64 48 55 S9G16 29.82S NANTUCKET SUNNY 60 49 66 SW17 29.88R $$ ANZ330-335-338-340-345-350-353-355-222200- COASTAL MARINE OBSERVATIONS STATION/POSITION TIME SKY/WX TEMP WIND PRES VSBY WAVE AIR SEA DIR/SP/G HT/PER (UTC) (F) (DEG/KT/KT) (MB) (MI) (FT/S) NY HARB ENTRANCE 2050 65 57 290/ 12/ 16 1013.7 2/ 3 4S FIRE IS 2003 54 N/A 2/ 4 20S FIRE ISLAND 2050 60 56 220/ 12/ 14 1014.0 2/ 3 GREAT SOUTH BAY NOT AVBL 23SW MTP 2050 58 54 240/ 17/ 21 1012.9 3/ 5 HUDSON CANYON NOT AVBL KINGS POINT 2000 65 54 290/ 10/ 14 1013.1 CENTRAL LI SOUND 2030 60 53 250/ 12/ 12 N/A EASTERN LI SOUND 2000 58 240/ 14/ 16 N/A ROBBINS REEF 2000 69 330/ 12/ 16 1012.3 $$ >>>>>>>>>>>>>>>>>>>>>>>>>>>> KEY <<<<<<<<<<<<<<<<<<<<<<<<<<< > < > SKY/WX - SKY CONDITION/PRESENT WEATHER < > TMP - TEMPERATURE IN FAHRENHEIT < > DP - DEWPOINT IN FAHRENHEIT < > RH - RELATIVE HUMIDITY IN PERCENT < > WIND - DIRECTION AND SPEED IN MPH < > PRES - MEAN SEA LEVEL PRESSURE IN INCHES OF HG < > WCI - WIND CHILL INDEX < > VSB - VISIBILITY IN MILES < > HX - HEAT INDEX < > TC - TEMPERATURE IN CELSIUS < > VRB - VARIABLE WIND DIRECTION < > < >>>>>>>>>>>>>>>>>>>>>>>>>>>> KEY <<<<<<<<<<<<<<<<<<<<<<<<<<<

USA.gov is the U.S. government's official web portal to all federal, state and local government web resources and services.